North Padre Island, TX

10:32 AM CDT on March 23, 2017 (GMT -0500)
North Padre Island

Weather History for KOPM - August, 2013

Change the Weather History Date:

Thursday, August 29, 2013

  Actual Average (KHRL) Record (KHRL)
Temperature  
Mean Temperature 86 °F 85 °F  
Max Temperature 87 °F 95 °F 104 °F (2012)
Min Temperature 84 °F 75 °F 63 °F (1958)
Degree Days  
Heating Degree Days 0 0  
Month to date heating degree days 0  
Since 1 June heating degree days 0  
Since 1 July heating degree days 0  
Cooling Degree Days 20 20  
Month to date cooling degree days 598  
Year to date cooling degree days 2890  
Since 1 June cooling degree days 1789  
Growing Degree Days 36 (Base 50)    
Moisture  
Dew Point 75 °F    
Average Humidity 71    
Maximum Humidity 74    
Minimum Humidity 62    
Precipitation  
Precipitation 0.00 in 0.13 in 5.55 in (1936)
Month to date precipitation 1.59  
Year to date precipitation 13.94  
Sea Level Pressure  
Sea Level Pressure 30.02 in    
Wind  
Wind Speed 9 mph (East)    
Max Wind Speed 14 mph    
Max Gust Speed -    
Visibility 10 miles    
Events      
T = Trace of Precipitation, MM = Missing Value Source: NWS Daily Summary

Daily Weather History Graph

Daily Weather History Graph

Search for Another Location

Airport or City:

Trip Planner

Search our weather history database for the weather conditions in past years. The results will help you decide how hot, cold, wet, or windy it might be!

Date:

Astronomy

Aug. 29, 2013 Rise Set
Actual Time 7:06 AM CDT 7:50 PM CDT
Civil Twilight 6:42 AM CDT 8:14 PM CDT
Nautical Twilight 6:14 AM CDT 8:42 PM CDT
Astronomical Twilight 5:46 AM CDT 9:10 PM CDT
Moon 1:14 AM CDT (8/29) 3:04 PM CDT (8/29)
Length of Visible Light 13h 31m
Length of Day
12h 44m
Last Quarter, 38% of the Moon is Illuminated
Aug 29
Last Quarter
Sep 5
New
Sep 12
First Quarter
Sep 19
Full
Sep 26
Last Quarter

Hourly Weather History & Observations

Time (CDT) Temp. Heat Index Dew Point Humidity Pressure Visibility Wind Dir Wind Speed Gust Speed Precip Events Conditions
12:15 AM 84.2 °F 92.3 °F 75.2 °F 74% 30.02 in 10.0 mi East 13.8 mph - N/A   Unknown
12:35 AM 84.2 °F 92.3 °F 75.2 °F 74% 30.02 in 10.0 mi East 13.8 mph - N/A   Unknown
12:55 AM 84.2 °F 92.3 °F 75.2 °F 74% 30.02 in 10.0 mi East 12.7 mph - N/A   Unknown
1:15 AM 84.2 °F 92.3 °F 75.2 °F 74% 30.02 in 10.0 mi ESE 11.5 mph - N/A   Unknown
1:35 AM 84.2 °F 92.3 °F 75.2 °F 74% 30.02 in 10.0 mi ESE 12.7 mph - N/A   Unknown
1:55 AM 84.2 °F 92.3 °F 75.2 °F 74% 30.02 in 10.0 mi ESE 12.7 mph - N/A   Unknown
2:15 AM 84.2 °F 92.3 °F 75.2 °F 74% 30.02 in 10.0 mi ESE 12.7 mph - N/A   Unknown
2:35 AM 84.2 °F 92.3 °F 75.2 °F 74% 30.01 in 10.0 mi ESE 12.7 mph - N/A   Unknown
2:55 AM 84.2 °F 92.3 °F 75.2 °F 74% 30.01 in 10.0 mi SE 11.5 mph - N/A   Unknown
3:15 AM 84.2 °F 92.3 °F 75.2 °F 74% 30.01 in 10.0 mi SE 12.7 mph - N/A   Unknown
3:35 AM 84.2 °F 92.3 °F 75.2 °F 74% 30.01 in 10.0 mi SE 11.5 mph - N/A   Unknown
3:55 AM 84.2 °F 92.3 °F 75.2 °F 74% 30.01 in 10.0 mi SE 10.4 mph - N/A   Unknown
4:15 AM 84.2 °F 92.3 °F 75.2 °F 74% 30.01 in 10.0 mi SE 9.2 mph - N/A   Unknown
4:35 AM 84.2 °F 92.3 °F 75.2 °F 74% 30.01 in 10.0 mi SE 8.1 mph - N/A   Unknown
4:55 AM 84.2 °F 92.3 °F 75.2 °F 74% 30.01 in 10.0 mi SE 6.9 mph - N/A   Unknown
5:15 AM 84.2 °F 92.3 °F 75.2 °F 74% 30.01 in 10.0 mi SE 5.8 mph - N/A   Unknown
5:35 AM 84.2 °F 92.3 °F 75.2 °F 74% 30.02 in 10.0 mi SE 6.9 mph - N/A   Unknown
5:55 AM 84.2 °F 92.3 °F 75.2 °F 74% 30.02 in 10.0 mi SE 5.8 mph - N/A   Unknown
6:15 AM 84.2 °F 92.3 °F 75.2 °F 74% 30.03 in 10.0 mi ESE 6.9 mph - N/A   Unknown
6:35 AM 84.2 °F 92.3 °F 75.2 °F 74% 30.03 in 10.0 mi ESE 8.1 mph - N/A   Unknown
6:55 AM 84.2 °F 92.3 °F 75.2 °F 74% 30.03 in 10.0 mi East 5.8 mph - N/A   Unknown
7:15 AM 84.2 °F 92.3 °F 75.2 °F 74% 30.03 in 10.0 mi East 5.8 mph - N/A   Unknown
7:35 AM 84.2 °F 92.3 °F 75.2 °F 74% 30.04 in 10.0 mi East 5.8 mph - N/A   Unknown
7:55 AM 84.2 °F 92.3 °F 75.2 °F 74% 30.04 in 10.0 mi East 5.8 mph - N/A   Unknown
8:15 AM 84.2 °F 90.9 °F 73.4 °F 70% 30.05 in 10.0 mi East 5.8 mph - N/A   Unknown
8:35 AM 84.2 °F 92.3 °F 75.2 °F 74% 30.05 in 10.0 mi East 4.6 mph - N/A   Unknown
8:55 AM 84.2 °F 92.3 °F 75.2 °F 74% 30.05 in 10.0 mi East 5.8 mph - N/A   Unknown
9:15 AM 84.2 °F 92.3 °F 75.2 °F 74% 30.05 in 10.0 mi East 6.9 mph - N/A   Unknown
9:35 AM 84.2 °F 92.3 °F 75.2 °F 74% 30.06 in 10.0 mi ENE 5.8 mph - N/A   Unknown
9:55 AM 84.2 °F 92.3 °F 75.2 °F 74% 30.06 in 10.0 mi East 5.8 mph - N/A   Unknown
10:15 AM 84.2 °F 92.3 °F 75.2 °F 74% 30.06 in 10.0 mi ENE 5.8 mph - N/A   Unknown
10:35 AM 84.2 °F 92.3 °F 75.2 °F 74% 30.06 in 10.0 mi NE 5.8 mph - N/A   Unknown
10:55 AM 84.2 °F 92.3 °F 75.2 °F 74% 30.06 in 10.0 mi ENE 3.5 mph - N/A   Unknown
11:15 AM 86.0 °F 95.1 °F 75.2 °F 70% 30.07 in 10.0 mi Calm Calm - N/A   Unknown
11:35 AM 86.0 °F 95.1 °F 75.2 °F 70% 30.07 in 10.0 mi Calm Calm - N/A   Unknown
11:55 AM 87.8 °F 95.6 °F 73.4 °F 62% 30.07 in 10.0 mi Calm Calm - N/A   Unknown
12:15 PM 87.8 °F 95.6 °F 73.4 °F 62% 30.06 in 10.0 mi Calm Calm - N/A   Unknown
12:35 PM 87.8 °F 95.6 °F 73.4 °F 62% 30.06 in 10.0 mi Calm Calm - N/A   Unknown
12:55 PM 86.0 °F 95.1 °F 75.2 °F 70% 30.05 in 10.0 mi Variable 3.5 mph - N/A   Unknown
1:15 PM 86.0 °F 93.4 °F 73.4 °F 66% 30.05 in 10.0 mi ENE 3.5 mph - N/A   Unknown
1:35 PM 86.0 °F 93.4 °F 73.4 °F 66% 30.04 in 10.0 mi East 3.5 mph - N/A   Unknown
1:55 PM 86.0 °F 95.1 °F 75.2 °F 70% 30.04 in 10.0 mi ENE 5.8 mph - N/A   Unknown
2:15 PM 86.0 °F 95.1 °F 75.2 °F 70% 30.04 in 10.0 mi East 4.6 mph - N/A   Unknown
2:35 PM 86.0 °F 95.1 °F 75.2 °F 70% 30.03 in 10.0 mi ENE 5.8 mph - N/A   Unknown
2:55 PM 86.0 °F 93.4 °F 73.4 °F 66% 30.03 in 10.0 mi ENE 5.8 mph - N/A   Unknown
3:15 PM 86.0 °F 93.4 °F 73.4 °F 66% 30.01 in 10.0 mi ENE 6.9 mph - N/A   Unknown
3:35 PM 86.0 °F 93.4 °F 73.4 °F 66% 30.01 in 10.0 mi ENE 6.9 mph - N/A   Unknown
3:55 PM 86.0 °F 95.1 °F 75.2 °F 70% 30.00 in 10.0 mi ENE 8.1 mph - N/A   Unknown
4:15 PM 86.0 °F 93.4 °F 73.4 °F 66% 29.99 in 10.0 mi ENE 9.2 mph - N/A   Unknown
4:35 PM 86.0 °F 95.1 °F 75.2 °F 70% 29.99 in 10.0 mi ENE 9.2 mph - N/A   Unknown
4:55 PM 86.0 °F 93.4 °F 73.4 °F 66% 29.99 in 10.0 mi ENE 10.4 mph - N/A   Unknown
5:15 PM 86.0 °F 95.1 °F 75.2 °F 70% 29.98 in 10.0 mi ENE 9.2 mph - N/A   Unknown
5:35 PM 86.0 °F 95.1 °F 75.2 °F 70% 29.98 in 10.0 mi NE 11.5 mph - N/A   Unknown
5:55 PM 86.0 °F 95.1 °F 75.2 °F 70% 29.99 in 10.0 mi East 8.1 mph - N/A   Unknown
6:15 PM 84.2 °F 90.9 °F 73.4 °F 70% 29.98 in 10.0 mi ENE 10.4 mph - N/A   Unknown
6:35 PM 84.2 °F 90.9 °F 73.4 °F 70% 29.98 in 10.0 mi East 9.2 mph - N/A   Unknown
6:55 PM 84.2 °F 90.9 °F 73.4 °F 70% 29.98 in 10.0 mi East 9.2 mph - N/A   Unknown
7:15 PM 84.2 °F 90.9 °F 73.4 °F 70% 29.98 in 10.0 mi East 10.4 mph - N/A   Unknown
7:35 PM 84.2 °F 90.9 °F 73.4 °F 70% 29.98 in 10.0 mi East 11.5 mph - N/A   Unknown
7:55 PM 84.2 °F 90.9 °F 73.4 °F 70% 29.98 in 10.0 mi East 11.5 mph - N/A   Unknown
8:15 PM 84.2 °F 90.9 °F 73.4 °F 70% 29.98 in 10.0 mi East 11.5 mph - N/A   Unknown
8:35 PM 84.2 °F 90.9 °F 73.4 °F 70% 29.98 in 10.0 mi East 11.5 mph - N/A   Unknown
8:55 PM 84.2 °F 90.9 °F 73.4 °F 70% 29.98 in 10.0 mi East 12.7 mph - N/A   Unknown
9:15 PM 84.2 °F 90.9 °F 73.4 °F 70% 29.98 in 10.0 mi East 11.5 mph - N/A   Unknown
9:35 PM 84.2 °F 90.9 °F 73.4 °F 70% 29.98 in 10.0 mi East 11.5 mph - N/A   Unknown
9:55 PM 84.2 °F 90.9 °F 73.4 °F 70% 29.99 in 10.0 mi East 11.5 mph - N/A   Unknown
10:15 PM 84.2 °F 92.3 °F 75.2 °F 74% 29.99 in 10.0 mi ESE 11.5 mph - N/A   Unknown
10:35 PM 84.2 °F 92.3 °F 75.2 °F 74% 29.99 in 10.0 mi ESE 12.7 mph - N/A   Unknown
10:55 PM 84.2 °F 92.3 °F 75.2 °F 74% 30.00 in 10.0 mi SE 12.7 mph - N/A   Unknown
11:15 PM 84.2 °F 92.3 °F 75.2 °F 74% 30.00 in 10.0 mi SE 11.5 mph - N/A   Unknown
11:35 PM 84.2 °F 92.3 °F 75.2 °F 74% 30.00 in 10.0 mi SE 11.5 mph - N/A   Unknown
11:55 PM 84.2 °F 92.3 °F 75.2 °F 74% 30.01 in 10.0 mi ESE 11.5 mph - N/A   Unknown